Weather in Schaffhausen

Switzerland     47°42′10″N   8°38′16″E
В апреле 2022 года жителям России запретили посещать сайт meteo.paraplan.net по решению Генеральной прокуратуры. Аудитория сайта уменьшилась в 10 раз. Владельцы сайта не видят смысла в поддержке погодного сервера в таких условиях. Сайт будет закрыт в октябре.
temp.,
°C
wind,
m/s
gust,
m/s
humid.,
%
clouds,
%
prec.,
mm/h
press.,
hPa
HPBL,
m
6 october, thu
thu623:00+11sw119112 0.0 102610
02:00+10ssw11940 0.0 102810
05:00+9wsw11950 0.0 102910
08:00+9wnw01950 0.0 103010
11:00+16nw01730 0.0 1031347
14:00+19e12619 0.0 1029959
17:00+19ne236935 0.1 1028662
20:00+12nne249346 0.1 103093
7 october, fri
fri723:00+11n22962 0.0 103045
02:00+10n22961 0.0 102934
05:00+9nne119711 0.0 102814
08:00+8nne119825 0.0 102711
11:00+14ssw128244 0.0 1025377
14:00+18sw23665 0.0 1022673
17:00+19sw24688 0.0 1020627
20:00+13w118850 0.0 102110
8 october, sat
sat823:00+12wsw1190100 0.0 102110
02:00+12sw119596 0.0 102110
05:00+12wsw1197100 0.1 102016
08:00+12sw1299100 1.8 102180
11:00+15w138740 0.6 1023444
14:00+17wnw126223 1.2 10231059
17:00+16n246358 0.1 1023441
20:00+11n258123 0.1 1025110
9 october, sun
sun923:00+8nne22910 0.0 102632
02:00+6nne23935 0.0 102566
05:00+5n23945 0.0 102453
08:00+5n22955 0.0 102448
11:00+11e117419 0.0 1022394
14:00+16se11615 0.0 1020561
17:00+17ne00645 0.0 1017388
20:00+11nne00890 0.0 101910
10 october, mon
mon1023:00+9w11920 0.0 102010
02:00+9wsw019338 0.0 102010
05:00+8sw00945 0.0 102010
08:00+8wnw119532 0.0 102110
11:00+16ssw137343 0.0 1021301
14:00+19wsw2461100 0.0 1020679
17:00+18sw2472100 0.1 1020144
20:00+13wnw119030 0.1 102211